| time (UTC) | temp F | wind direction | speed MPH | gust MPH | rain 1hr in | rain 24hr in | rain mn in | humidity % | barometer mb |
| 20260902031203 | 56 | 180 | 3.0 | 10.0 | 0.00 | 0.00 | 0.00 | 93 | 1017.5 |
| 20260902030703 | 56 | 172 | 3.0 | 7.0 | 0.00 | 0.00 | 0.00 | 93 | 1017.5 |
| 20260902030203 | 56 | 168 | 5.0 | 8.0 | 0.00 | 0.00 | 0.00 | 93 | 1017.6 |
| 20260902025704 | 56 | 175 | 3.0 | 7.0 | 0.00 | 0.00 | 0.00 | 93 | 1017.6 |
| 20260902025203 | 56 | 160 | 3.0 | 6.0 | 0.00 | 0.00 | 0.00 | 93 | 1017.7 |
| 20260902024703 | 56 | 178 | 3.0 | 5.0 | 0.00 | 0.00 | 0.00 | 93 | 1017.7 |
| 20260902024203 | 56 | 167 | 3.0 | 6.0 | 0.00 | 0.00 | 0.00 | 94 | 1017.7 |
| 20260902023703 | 56 | 167 | 5.0 | 8.0 | 0.00 | 0.00 | 0.00 | 94 | 1017.8 |
| 20260902023203 | 56 | 174 | 3.0 | 6.0 | 0.00 | 0.00 | 0.00 | 94 | 1017.8 |
| 20260902022203 | 56 | 175 | 2.0 | 3.0 | 0.00 | 0.00 | 0.00 | 94 | 1017.8 |
| 20260902021703 | 56 | 185 | 2.0 | 3.0 | 0.00 | 0.00 | 0.00 | 94 | 1017.9 |
| 20260902021203 | 56 | 201 | 1.0 | 3.0 | 0.00 | 0.00 | 0.00 | 94 | 1018.0 |
| 20260902020704 | 56 | 184 | 1.0 | 3.0 | 0.00 | 0.00 | 0.00 | 94 | 1018.0 |
| 20260902020204 | 56 | 184 | 1.0 | 2.0 | 0.00 | 0.00 | 0.00 | 94 | 1017.9 |
| 20260902015705 | 55 | 180 | 1.0 | 3.0 | 0.00 | 0.00 | 0.00 | 94 | 1017.9 |
| 20260902015203 | 55 | 179 | 1.0 | 3.0 | 0.00 | 0.00 | 0.00 | 94 | 1017.9 |
| 20260902014704 | 55 | 180 | 3.0 | 6.0 | 0.00 | 0.00 | 0.00 | 94 | 1017.9 |
| 20260902014203 | 55 | 170 | 2.0 | 5.0 | 0.00 | 0.00 | 0.00 | 94 | 1017.9 |
| 20260902013703 | 55 | 176 | 3.0 | 6.0 | 0.00 | 0.00 | 0.00 | 94 | 1017.9 |
| 20260902013204 | 55 | 175 | 2.0 | 5.0 | 0.00 | 0.00 | 0.00 | 94 | 1017.9 |
| 20260902012703 | 55 | 177 | 3.0 | 5.0 | 0.00 | 0.00 | 0.00 | 94 | 1017.9 |
| 20260902012203 | 55 | 185 | 1.0 | 3.0 | 0.00 | 0.00 | 0.00 | 94 | 1018.0 |
| 20260902011704 | 55 | 171 | 1.0 | 3.0 | 0.00 | 0.00 | 0.00 | 94 | 1017.9 |
| 20260902011203 | 55 | 172 | 3.0 | 6.0 | 0.00 | 0.00 | 0.00 | 94 | 1018.0 |
| 20260902010703 | 55 | 172 | 3.0 | 6.0 | 0.00 | 0.00 | 0.00 | 94 | 1017.9 |
| 20260902005703 | 55 | 164 | 2.0 | 5.0 | 0.00 | 0.00 | 0.00 | 94 | 1017.9 |
| 20260902005204 | 55 | 162 | 2.0 | 3.0 | 0.00 | 0.00 | 0.00 | 94 | 1017.9 |
| 20260902003704 | 55 | 174 | 1.0 | 3.0 | 0.00 | 0.00 | 0.00 | 94 | 1018.0 |
| 20260902003204 | 55 | 181 | 1.0 | 2.0 | 0.00 | 0.00 | 0.00 | 94 | 1018.0 |
| 20260902002204 | 55 | 173 | 1.0 | 3.0 | 0.00 | 0.00 | 0.00 | 94 | 1018.1 |
| 20260902001704 | 55 | 160 | 0.0 | 2.0 | 0.00 | 0.00 | 0.00 | 94 | 1018.1 |
| 20260902000704 | 55 | 189 | 0.0 | 0.0 | 0.00 | 0.00 | 0.00 | 93 | 1018.1 |
| 20260902000205 | 55 | 177 | 0.0 | 0.0 | 0.00 | 0.00 | 0.00 | 93 | 1018.1 |
| 20260901235204 | 55 | 188 | 0.0 | 0.0 | 0.00 | 0.00 | 0.00 | 93 | 1018.2 |
| 20260901234703 | 55 | 183 | 0.0 | 0.0 | 0.00 | 0.00 | 0.00 | 93 | 1018.2 |
| 20260901234204 | 55 | 171 | 0.0 | 0.0 | 0.00 | 0.00 | 0.00 | 93 | 1018.2 |
| 20260901233703 | 55 | 207 | 0.0 | 1.0 | 0.00 | 0.00 | 0.00 | 93 | 1018.2 |
| 20260901232704 | 55 | 207 | 0.0 | 0.0 | 0.00 | 0.00 | 0.00 | 93 | 1018.3 |
| 20260901232204 | 55 | 207 | 0.0 | 0.0 | 0.00 | 0.00 | 0.00 | 93 | 1018.3 |
| 20260901231704 | 55 | 207 | 0.0 | 0.0 | 0.00 | 0.00 | 0.00 | 93 | 1018.2 |
| 20260901231203 | 55 | 207 | 0.0 | 2.0 | 0.00 | 0.00 | 0.00 | 93 | 1018.3 |
| 20260901230704 | 55 | 207 | 1.0 | 2.0 | 0.00 | 0.00 | 0.00 | 92 | 1018.4 |
| 20260901230204 | 55 | 177 | 1.0 | 3.0 | 0.00 | 0.00 | 0.00 | 92 | 1018.4 |
| 20260901225704 | 55 | 206 | 0.0 | 0.0 | 0.00 | 0.01 | 0.00 | 92 | 1018.4 |
| 20260901225204 | 55 | 206 | 1.0 | 2.0 | 0.00 | 0.01 | 0.00 | 92 | 1018.3 |
| 20260901224204 | 55 | 206 | 0.0 | 0.0 | 0.00 | 0.01 | 0.00 | 92 | 1018.4 |
| 20260901223704 | 56 | 206 | 0.0 | 0.0 | 0.00 | 0.01 | 0.00 | 92 | 1018.4 |
| 20260901223204 | 56 | 206 | 0.0 | 0.0 | 0.00 | 0.01 | 0.00 | 92 | 1018.3 |
| 20260901222704 | 56 | 206 | 0.0 | 0.0 | 0.00 | 0.01 | 0.00 | 91 | 1018.4 |
| 20260901221702 | 56 | 206 | 0.0 | 0.0 | 0.00 | 0.01 | 0.00 | 91 | 1018.5 |
| 20260901221202 | 56 | 206 | 0.0 | 0.0 | 0.00 | 0.01 | 0.00 | 91 | 1018.5 |
| 20260901220202 | 57 | 206 | 0.0 | 0.0 | 0.00 | 0.01 | 0.00 | 91 | 1018.5 |
| 20260901215703 | 57 | 206 | 0.0 | 2.0 | 0.00 | 0.01 | 0.01 | 91 | 1018.6 |
| 20260901215202 | 57 | 206 | 0.0 | 2.0 | 0.00 | 0.01 | 0.01 | 91 | 1018.7 |
| 20260901214702 | 57 | 206 | 1.0 | 3.0 | 0.00 | 0.01 | 0.01 | 91 | 1018.9 |
| 20260901214202 | 57 | 206 | 1.0 | 2.0 | 0.00 | 0.01 | 0.01 | 91 | 1018.9 |
| 20260901213202 | 57 | 212 | 1.0 | 3.0 | 0.00 | 0.01 | 0.01 | 91 | 1018.9 |
| 20260901212702 | 57 | 227 | 1.0 | 3.0 | 0.00 | 0.01 | 0.01 | 91 | 1018.9 |
| 20260901212203 | 58 | 238 | 1.0 | 3.0 | 0.00 | 0.01 | 0.01 | 91 | 1018.9 |
| 20260901211702 | 58 | 244 | 1.0 | 3.0 | 0.00 | 0.01 | 0.01 | 91 | 1018.9 |
| 20260901211202 | 58 | 219 | 1.0 | 2.0 | 0.00 | 0.01 | 0.01 | 91 | 1019.0 |
| 20260901210203 | 58 | 212 | 1.0 | 2.0 | 0.00 | 0.01 | 0.01 | 91 | 1019.1 |
| 20260901205703 | 58 | 212 | 1.0 | 3.0 | 0.00 | 0.01 | 0.01 | 91 | 1019.0 |
| 20260901204204 | 58 | 213 | 2.0 | 5.0 | 0.00 | 0.01 | 0.01 | 91 | 1019.0 |
| 20260901203202 | 57 | 232 | 2.0 | 3.0 | 0.00 | 0.01 | 0.01 | 91 | 1019.1 |
| 20260901202702 | 57 | 229 | 2.0 | 3.0 | 0.00 | 0.01 | 0.01 | 90 | 1019.0 |
| 20260901202203 | 57 | 234 | 1.0 | 3.0 | 0.00 | 0.01 | 0.01 | 90 | 1019.0 |
| 20260901201202 | 58 | 212 | 0.0 | 0.0 | 0.00 | 0.01 | 0.01 | 90 | 1018.8 |
| 20260901200702 | 58 | 212 | 0.0 | 0.0 | 0.00 | 0.01 | 0.01 | 90 | 1018.7 |
| 20260901200202 | 58 | 212 | 0.0 | 0.0 | 0.00 | 0.01 | 0.01 | 90 | 1018.7 |
| 20260901194203 | 58 | 212 | 0.0 | 0.0 | 0.00 | 0.01 | 0.01 | 88 | 1018.5 |
| 20260901193705 | 59 | 212 | 0.0 | 0.0 | 0.00 | 0.01 | 0.01 | 88 | 1018.5 |
| 20260901192703 | 59 | 212 | 0.0 | 0.0 | 0.00 | 0.02 | 0.01 | 87 | 1018.5 |
| 20260901192203 | 59 | 212 | 0.0 | 0.0 | 0.00 | 0.02 | 0.01 | 86 | 1018.6 |
| 20260901191702 | 60 | 221 | 0.0 | 0.0 | 0.00 | 0.02 | 0.01 | 86 | 1018.6 |
| 20260901191203 | 60 | 248 | 0.0 | 0.0 | 0.00 | 0.02 | 0.01 | 85 | 1018.6 |
| 20260901190703 | 60 | 248 | 0.0 | 0.0 | 0.00 | 0.02 | 0.01 | 84 | 1018.6 |
| 20260901185703 | 61 | 248 | 0.0 | 0.0 | 0.00 | 0.07 | 0.01 | 83 | 1018.5 |
| 20260901185203 | 62 | 248 | 0.0 | 0.0 | 0.00 | 0.07 | 0.01 | 82 | 1018.5 |
| 20260901184703 | 62 | 248 | 0.0 | 0.0 | 0.00 | 0.07 | 0.01 | 82 | 1018.6 |
| 20260901184203 | 62 | 248 | 0.0 | 0.0 | 0.00 | 0.07 | 0.01 | 81 | 1018.5 |
| 20260901183703 | 63 | 248 | 0.0 | 0.0 | 0.00 | 0.07 | 0.01 | 79 | 1018.6 |
| 20260901183203 | 63 | 248 | 0.0 | 1.0 | 0.00 | 0.07 | 0.01 | 78 | 1018.6 |
| 20260901182703 | 64 | 248 | 0.0 | 3.0 | 0.00 | 0.07 | 0.01 | 78 | 1018.6 |
| 20260901181703 | 64 | 268 | 1.0 | 3.0 | 0.00 | 0.07 | 0.01 | 76 | 1018.6 |
| 20260901180703 | 65 | 255 | 5.0 | 8.0 | 0.00 | 0.07 | 0.01 | 75 | 1018.6 |
| 20260901180203 | 65 | 260 | 3.0 | 7.0 | 0.00 | 0.07 | 0.01 | 75 | 1018.7 |
| 20260901175703 | 65 | 260 | 3.0 | 5.0 | 0.00 | 0.07 | 0.01 | 74 | 1018.7 |
| 20260901175203 | 65 | 274 | 2.0 | 5.0 | 0.00 | 0.07 | 0.01 | 73 | 1018.6 |
| 20260901174203 | 66 | 269 | 3.0 | 6.0 | 0.00 | 0.07 | 0.01 | 72 | 1018.6 |
| 20260901173703 | 66 | 258 | 3.0 | 7.0 | 0.00 | 0.07 | 0.01 | 72 | 1018.6 |
| 20260901173203 | 66 | 260 | 3.0 | 9.0 | 0.00 | 0.07 | 0.01 | 72 | 1018.5 |
| 20260901172203 | 66 | 278 | 6.0 | 10.0 | 0.00 | 0.07 | 0.01 | 72 | 1018.5 |
| 20260901171203 | 66 | 254 | 3.0 | 8.0 | 0.00 | 0.07 | 0.01 | 73 | 1018.5 |
| 20260901170704 | 66 | 279 | 5.0 | 10.0 | 0.00 | 0.07 | 0.01 | 74 | 1018.5 |
| 20260901170203 | 67 | 273 | 7.0 | 12.0 | 0.00 | 0.07 | 0.01 | 73 | 1018.5 |
| 20260901165704 | 67 | 293 | 6.0 | 12.0 | 0.00 | 0.21 | 0.01 | 73 | 1018.5 |
| 20260901165203 | 67 | 276 | 5.0 | 12.0 | 0.00 | 0.24 | 0.01 | 73 | 1018.5 |
| 20260901164703 | 67 | 258 | 3.0 | 10.0 | 0.00 | 0.24 | 0.01 | 72 | 1018.4 |
| 20260901163703 | 67 | 249 | 6.0 | 12.0 | 0.00 | 0.27 | 0.01 | 72 | 1018.4 |
| 20260901163203 | 68 | 276 | 7.0 | 12.0 | 0.00 | 0.27 | 0.01 | 71 | 1018.4 |
| 20260901162703 | 68 | 289 | 6.0 | 12.0 | 0.00 | 0.27 | 0.01 | 71 | 1018.4 |
| 20260901162203 | 68 | 253 | 6.0 | 12.0 | 0.00 | 0.27 | 0.01 | 72 | 1018.3 |
| 20260901161703 | 68 | 265 | 5.0 | 8.0 | 0.00 | 0.27 | 0.01 | 71 | 1018.3 |
| 20260901161204 | 68 | 250 | 6.0 | 12.0 | 0.00 | 0.27 | 0.01 | 70 | 1018.3 |
| 20260901160704 | 69 | 271 | 7.0 | 13.0 | 0.00 | 0.27 | 0.01 | 70 | 1018.3 |
| 20260901155704 | 69 | 262 | 8.0 | 14.0 | 0.00 | 0.27 | 0.01 | 68 | 1018.2 |
| 20260901155204 | 69 | 233 | 4.0 | 12.0 | 0.00 | 0.27 | 0.01 | 70 | 1018.2 |
| 20260901154703 | 67 | 297 | 7.0 | 12.0 | 0.00 | 0.27 | 0.01 | 71 | 1018.2 |
| 20260901153704 | 68 | 291 | 9.0 | 12.0 | 0.00 | 0.27 | 0.01 | 69 | 1018.3 |
| 20260901153204 | 69 | 283 | 7.0 | 14.0 | 0.00 | 0.27 | 0.01 | 68 | 1018.3 |
| 20260901152704 | 69 | 281 | 8.0 | 13.0 | 0.00 | 0.27 | 0.01 | 68 | 1018.2 |
| 20260901152204 | 71 | 282 | 9.0 | 15.0 | 0.00 | 0.27 | 0.01 | 66 | 1018.2 |
| 20260901151704 | 70 | 258 | 5.0 | 14.0 | 0.00 | 0.27 | 0.01 | 67 | 1018.1 |
| 20260901150203 | 68 | 276 | 8.0 | 14.0 | 0.00 | 0.27 | 0.01 | 68 | 1018.0 |
| 20260901145703 | 69 | 279 | 9.0 | 14.0 | 0.00 | 0.27 | 0.01 | 68 | 1017.9 |
| 20260901145204 | 70 | 283 | 9.0 | 13.0 | 0.00 | 0.27 | 0.01 | 67 | 1017.9 |
| 20260901144703 | 70 | 268 | 9.0 | 14.0 | 0.00 | 0.27 | 0.01 | 66 | 1017.9 |
| 20260901144204 | 71 | 247 | 7.0 | 12.0 | 0.00 | 0.27 | 0.01 | 65 | 1017.9 |
| 20260901143704 | 71 | 269 | 6.0 | 12.0 | 0.00 | 0.27 | 0.01 | 67 | 1017.9 |
| 20260901143204 | 70 | 273 | 9.0 | 15.0 | 0.00 | 0.28 | 0.01 | 68 | 1017.9 |
| 20260901141703 | 69 | 281 | 6.0 | 14.0 | 0.00 | 0.28 | 0.01 | 70 | 1017.9 |
| 20260901141204 | 69 | 278 | 6.0 | 12.0 | 0.00 | 0.28 | 0.01 | 68 | 1017.9 |
| 20260901140703 | 70 | 286 | 12.0 | 20.0 | 0.00 | 0.28 | 0.01 | 67 | 1017.9 |
| 20260901140203 | 69 | 257 | 6.0 | 12.0 | 0.00 | 0.28 | 0.01 | 68 | 1017.8 |
| 20260901135703 | 68 | 274 | 8.0 | 12.0 | 0.00 | 0.28 | 0.01 | 68 | 1017.8 |
| 20260901135204 | 69 | 276 | 9.0 | 17.0 | 0.00 | 0.28 | 0.01 | 66 | 1017.9 |
| 20260901134704 | 70 | 250 | 10.0 | 16.0 | 0.00 | 0.28 | 0.01 | 65 | 1017.8 |
| 20260901134203 | 69 | 276 | 8.0 | 14.0 | 0.00 | 0.28 | 0.01 | 67 | 1017.8 |
| 20260901133705 | 68 | 295 | 9.0 | 13.0 | 0.00 | 0.28 | 0.01 | 67 | 1017.7 |
| 20260901133203 | 69 | 257 | 6.0 | 10.0 | 0.00 | 0.28 | 0.01 | 66 | 1017.7 |
| 20260901132703 | 69 | 279 | 7.0 | 16.0 | 0.00 | 0.28 | 0.01 | 64 | 1017.8 |
| 20260901132203 | 70 | 259 | 9.0 | 16.0 | 0.00 | 0.28 | 0.01 | 62 | 1017.8 |
| 20260901130204 | 72 | 287 | 9.0 | 15.0 | 0.00 | 0.28 | 0.01 | 62 | 1017.6 |
| 20260901125704 | 71 | 269 | 9.0 | 16.0 | 0.00 | 0.28 | 0.01 | 61 | 1017.6 |
| 20260901125203 | 71 | 287 | 9.0 | 15.0 | 0.00 | 0.28 | 0.01 | 61 | 1017.6 |
| 20260901124704 | 71 | 256 | 12.0 | 20.0 | 0.00 | 0.28 | 0.01 | 59 | 1017.7 |
| 20260901124204 | 70 | 263 | 10.0 | 16.0 | 0.00 | 0.28 | 0.01 | 61 | 1017.5 |
| 20260901123704 | 71 | 246 | 12.0 | 20.0 | 0.00 | 0.28 | 0.01 | 60 | 1017.6 |
| 20260901123203 | 71 | 266 | 9.0 | 16.0 | 0.00 | 0.28 | 0.01 | 62 | 1017.5 |
| 20260901122704 | 70 | 260 | 10.0 | 20.0 | 0.00 | 0.28 | 0.01 | 63 | 1017.5 |
| 20260901122204 | 69 | 284 | 8.0 | 15.0 | 0.00 | 0.28 | 0.01 | 66 | 1017.6 |
| 20260901121703 | 69 | 279 | 10.0 | 18.0 | 0.00 | 0.28 | 0.01 | 64 | 1017.6 |
| 20260901121204 | 70 | 274 | 11.0 | 17.0 | 0.00 | 0.28 | 0.01 | 63 | 1017.5 |
| 20260901120703 | 71 | 270 | 9.0 | 14.0 | 0.00 | 0.28 | 0.01 | 63 | 1017.5 |
| 20260901120204 | 70 | 281 | 9.0 | 15.0 | 0.00 | 0.28 | 0.01 | 63 | 1017.5 |
| 20260901115704 | 70 | 253 | 7.0 | 14.0 | 0.00 | 0.28 | 0.01 | 66 | 1017.5 |
| 20260901115204 | 70 | 267 | 10.0 | 16.0 | 0.00 | 0.28 | 0.01 | 64 | 1017.5 |
| 20260901114704 | 71 | 274 | 9.0 | 15.0 | 0.00 | 0.28 | 0.01 | 66 | 1017.4 |
| 20260901113704 | 71 | 292 | 10.0 | 14.0 | 0.00 | 0.28 | 0.01 | 65 | 1017.4 |
| 20260901113204 | 70 | 265 | 8.0 | 20.0 | 0.00 | 0.29 | 0.01 | 67 | 1017.4 |
| 20260901112704 | 69 | 237 | 11.0 | 18.0 | 0.00 | 0.31 | 0.01 | 66 | 1017.3 |
| 20260901112204 | 69 | 254 | 8.0 | 17.0 | 0.00 | 0.31 | 0.01 | 68 | 1017.4 |
| 20260901111704 | 69 | 258 | 11.0 | 17.0 | 0.00 | 0.31 | 0.01 | 66 | 1017.4 |
| 20260901104704 | 69 | 259 | 12.0 | 18.0 | 0.00 | 0.64 | 0.01 | 68 | 1017.3 |
| 20260901104204 | 68 | 237 | 5.0 | 12.0 | 0.00 | 0.69 | 0.01 | 76 | 1017.2 |
| 20260901103704 | 67 | 243 | 6.0 | 10.0 | 0.00 | 0.72 | 0.01 | 76 | 1017.3 |
| 20260901103204 | 66 | 247 | 7.0 | 13.0 | 0.00 | 0.77 | 0.01 | 77 | 1017.2 |
| 20260901101704 | 68 | 279 | 10.0 | 21.0 | 0.00 | 0.83 | 0.01 | 74 | 1017.2 |
| 20260901101204 | 68 | 278 | 10.0 | 17.0 | 0.00 | 0.88 | 0.01 | 75 | 1017.2 |
| 20260901100204 | 68 | 257 | 9.0 | 16.0 | 0.00 | 0.88 | 0.01 | 76 | 1017.0 |
| 20260901095704 | 67 | 261 | 7.0 | 13.0 | 0.00 | 0.88 | 0.01 | 76 | 1017.0 |
| 20260901095203 | 67 | 231 | 13.0 | 18.0 | 0.00 | 0.88 | 0.01 | 75 | 1016.9 |
| 20260901094203 | 67 | 270 | 6.0 | 12.0 | 0.00 | 0.88 | 0.01 | 80 | 1017.0 |
| 20260901093703 | 66 | 248 | 9.0 | 17.0 | 0.00 | 0.88 | 0.01 | 79 | 1017.0 |
| 20260901093203 | 66 | 263 | 9.0 | 17.0 | 0.00 | 0.88 | 0.01 | 80 | 1016.9 |
| 20260901092703 | 66 | 264 | 10.0 | 17.0 | 0.00 | 0.88 | 0.01 | 80 | 1016.9 |
| 20260901092203 | 66 | 239 | 9.0 | 18.0 | 0.00 | 0.88 | 0.01 | 80 | 1016.9 |
| 20260901091704 | 66 | 242 | 4.0 | 9.0 | 0.00 | 0.88 | 0.01 | 83 | 1016.9 |
| 20260901091203 | 65 | 255 | 9.0 | 14.0 | 0.00 | 0.88 | 0.01 | 83 | 1016.9 |
| 20260901090703 | 64 | 269 | 7.0 | 13.0 | 0.00 | 0.88 | 0.01 | 85 | 1016.9 |
| 20260901090203 | 64 | 254 | 6.0 | 12.0 | 0.00 | 0.88 | 0.01 | 86 | 1016.9 |
| 20260901085703 | 63 | 251 | 5.0 | 10.0 | 0.00 | 0.88 | 0.01 | 87 | 1016.8 |
| 20260901085203 | 63 | 243 | 6.0 | 10.0 | 0.00 | 0.88 | 0.01 | 88 | 1016.7 |
| 20260901084703 | 63 | 255 | 6.0 | 13.0 | 0.00 | 0.88 | 0.01 | 88 | 1016.7 |
| 20260901084203 | 63 | 242 | 6.0 | 14.0 | 0.00 | 0.88 | 0.01 | 88 | 1016.7 |
| 20260901083203 | 63 | 237 | 5.0 | 12.0 | 0.00 | 0.88 | 0.01 | 91 | 1016.5 |
| 20260901082704 | 63 | 244 | 8.0 | 13.0 | 0.00 | 0.88 | 0.01 | 91 | 1016.5 |
| 20260901081703 | 63 | 269 | 6.0 | 12.0 | 0.00 | 0.88 | 0.01 | 94 | 1016.4 |
| 20260901081203 | 63 | 259 | 3.0 | 10.0 | 0.00 | 0.88 | 0.01 | 95 | 1016.3 |
| 20260901080703 | 63 | 242 | 5.0 | 12.0 | 0.00 | 0.88 | 0.01 | 95 | 1016.3 |
| 20260901075703 | 62 | 262 | 7.0 | 12.0 | 0.00 | 0.88 | 0.01 | 96 | 1016.1 |
| 20260901075204 | 62 | 234 | 5.0 | 10.0 | 0.00 | 0.88 | 0.01 | 97 | 1016.1 |
| 20260901074703 | 62 | 250 | 7.0 | 12.0 | 0.00 | 0.88 | 0.01 | 97 | 1016.0 |
| 20260901074203 | 62 | 256 | 5.0 | 10.0 | 0.00 | 0.88 | 0.01 | 98 | 1016.0 |
| 20260901073704 | 62 | 243 | 7.0 | 12.0 | 0.00 | 0.88 | 0.01 | 98 | 1016.0 |
| 20260901072703 | 62 | 245 | 6.0 | 9.0 | 0.00 | 0.88 | 0.01 | 98 | 1015.8 |
| 20260901071203 | 62 | 240 | 6.0 | 12.0 | 0.00 | 0.88 | 0.01 | 98 | 1015.8 |
| 20260901070703 | 62 | 243 | 5.0 | 10.0 | 0.00 | 0.88 | 0.01 | 98 | 1015.7 |
| 20260901065703 | 61 | 239 | 5.0 | 10.0 | 0.00 | 0.88 | 0.01 | 99 | 1015.6 |
| 20260901065204 | 61 | 241 | 5.0 | 10.0 | 0.00 | 0.88 | 0.01 | 99 | 1015.7 |
| 20260901064703 | 61 | 245 | 5.0 | 10.0 | 0.00 | 0.88 | 0.01 | 98 | 1015.6 |
| 20260901064204 | 61 | 221 | 4.0 | 8.0 | 0.00 | 0.88 | 0.01 | 98 | 1015.6 |
| 20260901063704 | 61 | 248 | 5.0 | 13.0 | 0.00 | 0.88 | 0.01 | 99 | 1015.6 |
| 20260901063204 | 60 | 240 | 4.0 | 9.0 | 0.00 | 0.88 | 0.01 | 98 | 1015.5 |
| 20260901062703 | 60 | 231 | 4.0 | 8.0 | 0.00 | 0.88 | 0.01 | 99 | 1015.5 |
| 20260901062205 | 60 | 231 | 3.0 | 7.0 | 0.00 | 0.88 | 0.01 | 99 | 1015.5 |
| 20260901061703 | 60 | 227 | 3.0 | 7.0 | 0.00 | 0.88 | 0.01 | 98 | 1015.4 |
| 20260901061204 | 60 | 224 | 3.0 | 6.0 | 0.00 | 0.88 | 0.01 | 98 | 1015.3 |
| 20260901060704 | 59 | 208 | 3.0 | 6.0 | 0.00 | 0.88 | 0.01 | 98 | 1015.3 |
| 20260901055704 | 59 | 231 | 3.0 | 6.0 | 0.00 | 0.88 | 0.01 | 98 | 1015.2 |
| 20260901054704 | 59 | 210 | 3.0 | 6.0 | 0.00 | 0.88 | 0.01 | 98 | 1015.1 |
| 20260901053703 | 59 | 226 | 3.0 | 6.0 | 0.00 | 0.88 | 0.01 | 98 | 1015.0 |
| 20260901053204 | 59 | 229 | 3.0 | 7.0 | 0.00 | 0.88 | 0.01 | 98 | 1014.9 |
| 20260901052703 | 59 | 232 | 3.0 | 6.0 | 0.00 | 0.88 | 0.01 | 98 | 1014.9 |
| 20260901052205 | 59 | 236 | 3.0 | 7.0 | 0.00 | 0.88 | 0.01 | 98 | 1014.8 |
| 20260901051704 | 59 | 231 | 2.0 | 5.0 | 0.00 | 0.88 | 0.01 | 98 | 1014.8 |
| 20260901051203 | 59 | 233 | 2.0 | 8.0 | 0.00 | 0.88 | 0.01 | 98 | 1014.7 |
| 20260901050704 | 59 | 235 | 3.0 | 9.0 | 0.00 | 0.88 | 0.01 | 98 | 1014.7 |
| 20260901050204 | 59 | 224 | 3.0 | 6.0 | 0.00 | 0.88 | 0.01 | 98 | 1014.8 |
| 20260901045704 | 58 | 223 | 3.0 | 7.0 | 0.00 | 0.88 | 0.01 | 98 | 1014.7 |
| 20260901045203 | 58 | 231 | 3.0 | 6.0 | 0.00 | 0.88 | 0.01 | 98 | 1014.8 |
| 20260901043704 | 58 | 228 | 1.0 | 3.0 | 0.00 | 0.88 | 0.01 | 98 | 1014.6 |
| 20260901043204 | 58 | 234 | 2.0 | 3.0 | 0.00 | 0.88 | 0.01 | 98 | 1014.6 |
| 20260901042704 | 58 | 219 | 2.0 | 3.0 | 0.00 | 0.88 | 0.01 | 98 | 1014.6 |
| 20260901042204 | 58 | 225 | 2.0 | 3.0 | 0.00 | 0.88 | 0.01 | 98 | 1014.6 |
| 20260901041704 | 58 | 227 | 2.0 | 6.0 | 0.00 | 0.88 | 0.01 | 98 | 1014.6 |
| 20260901041204 | 59 | 240 | 2.0 | 3.0 | 0.00 | 0.88 | 0.01 | 98 | 1014.5 |
| 20260901040202 | 59 | 215 | 2.0 | 5.0 | 0.00 | 0.88 | 0.01 | 98 | 1014.4 |
| 20260901035703 | 59 | 226 | 2.0 | 3.0 | 0.00 | 0.89 | 0.01 | 98 | 1014.5 |
| 20260901034703 | 58 | 228 | 2.0 | 3.0 | 0.00 | 0.89 | 0.01 | 98 | 1014.3 |
| 20260901033703 | 58 | 221 | 1.0 | 3.0 | 0.00 | 0.89 | 0.01 | 98 | 1014.3 |
| 20260901033203 | 59 | 237 | 2.0 | 3.0 | 0.00 | 0.89 | 0.01 | 98 | 1014.2 |
| 20260901032704 | 59 | 230 | 1.0 | 3.0 | 0.00 | 0.89 | 0.01 | 98 | 1014.1 |
| 20260901032203 | 59 | 237 | 2.0 | 3.0 | 0.00 | 0.89 | 0.01 | 98 | 1014.2 |
| 20260901031703 | 59 | 222 | 2.0 | 5.0 | 0.00 | 0.89 | 0.01 | 98 | 1014.1 |